TimeMDT,TemperatureF,Dew PointF,Humidity,Sea Level PressureIn,VisibilityMPH,Wind Direction,Wind SpeedMPH,Gust SpeedMPH,PrecipitationIn,Events,Conditions,WindDirDegrees,DateUTC
12:53 AM,44.1,32.0,63,30.35,10.0,NE,4.6,-,N/A,,Clear,50,2012-09-14 06:53:00
1:53 AM,43.0,32.0,65,30.35,10.0,NE,4.6,-,N/A,,Clear,50,2012-09-14 07:53:00
2:53 AM,41.0,30.9,67,30.34,10.0,ENE,6.9,-,N/A,,Clear,70,2012-09-14 08:53:00
3:53 AM,39.9,30.9,70,30.32,10.0,NE,4.6,-,N/A,,Clear,50,2012-09-14 09:53:00
4:53 AM,37.9,28.9,70,30.32,10.0,NE,3.5,-,N/A,,Clear,40,2012-09-14 10:53:00
6:53 AM,36.0,30.0,79,30.34,10.0,Calm,Calm,-,N/A,,Clear,0,2012-09-14 12:53:00
7:53 AM,37.0,30.9,79,30.37,10.0,Calm,Calm,-,N/A,,Clear,0,2012-09-14 13:53:00
8:53 AM,43.0,28.9,58,30.38,-9999.0,Calm,Calm,-,N/A,,Clear,0,2012-09-14 14:53:00
9:53 AM,50.0,30.9,48,30.37,10.0,Calm,Calm,-,N/A,,Clear,0,2012-09-14 15:53:00
10:53 AM,59.0,35.1,41,30.35,10.0,Calm,Calm,-,N/A,,Clear,0,2012-09-14 16:53:00
11:53 AM,68.0,30.9,25,30.31,10.0,Calm,Calm,-,N/A,,Clear,0,2012-09-14 17:53:00
12:53 PM,73.9,30.0,20,30.28,10.0,Calm,Calm,-,N/A,,Clear,0,2012-09-14 18:53:00
1:53 PM,78.1,24.1,14,30.25,10.0,SW,8.1,-,N/A,,Clear,220,2012-09-14 19:53:00
2:53 PM,80.1,19.9,11,30.22,10.0,SSW,10.4,-,N/A,,Clear,210,2012-09-14 20:53:00
3:53 PM,80.1,15.1,9,30.19,10.0,WSW,6.9,-,N/A,,Clear,250,2012-09-14 21:53:00
4:53 PM,82.0,16.0,8,30.17,10.0,Variable,6.9,-,N/A,,Clear,0,2012-09-14 22:53:00
5:53 PM,81.0,12.9,8,30.15,10.0,South,10.4,-,N/A,,Clear,190,2012-09-14 23:53:00
6:53 PM,78.1,19.0,11,30.16,10.0,SSW,4.6,-,N/A,,Clear,200,2012-09-15 00:53:00
7:53 PM,69.1,21.9,17,30.17,10.0,South,3.5,-,N/A,,Clear,180,2012-09-15 01:53:00
8:53 PM,66.0,17.1,15,30.16,10.0,South,5.8,-,N/A,,Clear,180,2012-09-15 02:53:00
9:53 PM,55.9,30.9,39,30.17,10.0,North,3.5,-,N/A,,Clear,360,2012-09-15 03:53:00
10:53 PM,52.0,30.0,43,30.17,10.0,NNE,5.8,-,N/A,,Clear,30,2012-09-15 04:53:00
11:53 PM,48.9,30.9,50,30.15,10.0,NNE,4.6,-,N/A,,Clear,30,2012-09-15 05:53:00